Regional Weather Roundup
Issued by NWS

Home | Current Version | Previous Version | Text Only | Print | Product List | Glossary Off
Versions: 1 2 3 4 5 6 7 8 9 10 11 12 13 14 15 16 17 18 19 20 21 22 23 24 25 26 27 28 29 30 31 32 33 34 35 36 37 38 39 40 41 42 43 44 45 46 47 48

000
ASUS45 KCYS 180210
RWRWY

WYOMING REGIONAL WEATHER ROUNDUP
NATIONAL WEATHER SERVICE CHEYENNE WY
800 PM MDT FRI APR 17 2015

NOTE:  "FAIR" INDICATES FEW OR NO CLOUDS BELOW 12,000 FEET
WITH NO SIGNIFICANT WEATHER AND/OR OBSTRUCTIONS TO VISIBILITY.

WYZ001-180300-
YELLOWSTONE NATIONAL PARK

CITY           SKY/WX    TMP DP  RH WIND       PRES   REMARKS
LK YELLOWSTONE   N/A     38  23  55 NW5       30.13S WCI  34
W YELLOWSTONE  NOT AVBL

$$
WYZ002>013-054>058-071-098>099-180300-
NORTHERN WYOMING

CITY           SKY/WX    TMP DP  RH WIND       PRES   REMARKS
JACKSON        CLEAR     52  16  24 NW7       30.04S
CODY           FAIR      55  27  33 CALM      30.07S
GREYBULL       FAIR      60  28  29 S8        30.03S
WORLAND        FAIR      53  33  46 S7        30.05S
SHERIDAN       FAIR      56  31  38 SE3       30.06F
BUFFALO        FAIR      53  30  41 CALM      30.11S
GILLETTE       MOCLDY    49  40  71 S13       30.09S
HULETT         MOCLDY    54  34  47 CALM      30.11S
NEWCASTLE      DRIZZLE   43  43 100 CALM      30.13S

$$
WYZ014>020-022>026-101>103-180300-
CENTRAL WYOMING

CITY           SKY/WX    TMP DP  RH WIND       PRES   REMARKS
BIG PINEY      FAIR      44  30  57 SW9       30.10R
PINEDALE       FAIR      48  10  21 NE6       30.09R
DUBOIS         FAIR      45  21  39 SE8       30.12R
LANDER         MOCLDY    46  38  73 SE9       30.09R
RIVERTON       CLOUDY    47  37  68 E12       30.11R
CASPER         LGT RAIN  34  33  96 E6        30.13S WCI  29
DOUGLAS        LGT RAIN  36  36 100 W3        30.13R

$$
WYZ021-027>030-104>119-180300-
SOUTHERN WYOMING

CITY           SKY/WX    TMP DP  RH WIND       PRES   REMARKS
EVANSTON       CLOUDY    39  33  79 E7        30.12R WCI  34
KEMMERER       FAIR      37  34  87 S8        30.13R WCI  31
FORT BRIDGER   CLEAR     37  36  93 S9        30.14S WCI  31
ROCK SPRINGS   MOCLDY    36  34  92 NE22      30.09S WCI  25
DIXON          CLOUDY    41  31  68 NE10      30.02S
RAWLINS        FAIR      33  32  96 NE13      30.08R WCI  24
SARATOGA       MOCLDY    32  32 100 MISG      30.05S
LARAMIE        FAIR      29  27  92 NW10      30.03F WCI  20
CHEYENNE       LGT RAIN  34  31  88 N13       30.06F WCI  25
TORRINGTON     CLOUDY    42  39  89 N13       30.06F
PINE BLUFFS    HVY RAIN  36  36 100 NW10      30.05F WCI  28

$$



USA.gov is the U.S. government's official web portal to all federal, state and local government web resources and services.